Content
SEND FEEDBACK

Daily
Averages
Monthly
Summary
United States of America

WEDDERBURN, OREGON


Home > North America > United States > Oregon
Elevation: 133 feet     Latitude: 42 24N     Longitude: 124 25W

WEATHER
 
SELECT A DAY
Number of Records: 138,081;   Date Range: 8/2/05 - 9/30/14
 
SHARE

PRINT THIS DATA

[ ← Previous Day ]
WEATHER ALMANAC - JANUARY 19, 2013
[ Next Day → ]
[ °C ]   °F
Weather ElementAverageHighLow
Temperature42.9 °F57.9 °F (2:56 pm)34 °F (7:56 am)
Dewpoint40.5 °F47.8 °F (1:56 pm)34 °F (7:56 am)
Humidity92.2 %100 % (1:56 am)69 % (2:56 pm)
Barometer30.25 in30.30 in (9:56 am)30.21 in (1:56 am)
Wind Speed1 mph3.5 mph (10:56 am)
Weather ElementAverage
Visibility7.9 mi
Wind DirectionNNE (29.5 °)

Weather ElementTotal
Precipitation---
Heating Degree Days19.1 (Base 65)
Averaged from 22 records on January 19, 2013
WEATHER CONDITIONS BREAKOUT
WIND DIRECTION BREAKOUT
WEATHER BY HOUR - JANUARY 19, 2013
[ °C ]   °F
Local TimeTemperatureDewpointHumidityBarometerVisibilityWind DirectionWind SpeedGust SpeedPrecipitationEventsConditions
1:56 AM36.0 °F36.0 °F100 %30.21 in10.0 miCalmClear
2:56 AM36.0 °F36.0 °F100 %30.22 in10.0 miCalmClear
3:56 AM34.9 °F34.9 °F100 %30.23 in10.0 miCalmClear
4:56 AM34.9 °F34.9 °F100 %30.23 in10.0 miCalmClear
5:56 AM34.9 °F34.9 °F100 %30.25 in10.0 miCalmClear
6:56 AM34.9 °F34.9 °F100 %30.25 in10.0 miCalmClear
7:56 AM34.0 °F34.0 °F100 %30.26 in10.0 miCalmClear
8:56 AM36.9 °F36.9 °F100 %30.27 in10.0 miCalmClear
9:56 AM43.9 °F41.0 °F90 %30.30 in7.0 miCalm
10:56 AM48.9 °F43.9 °F83 %30.29 in10.0 miVariable3.5 mphClear
11:56 AM50.9 °F46.9 °F86 %30.27 in4.0 miCalmClear
12:56 PM54.0 °F46.9 °F77 %30.25 in4.0 miCalmHaze
1:56 PM56.8 °F47.8 °F72 %30.23 in5.0 miSW (230°)3.5 mphHaze
2:56 PM57.9 °F47.8 °F69 %30.23 in5.0 miSouth (190°)3.5 mphHaze
3:56 PM54.9 °F45.9 °F72 %30.23 in5.0 miCalmHaze
4:56 PM50.0 °F43.9 °F79 %30.22 in5.0 miSouth (170°)3.5 mphHaze
5:56 PM45.0 °F45.0 °F100 %30.23 in5.0 miCalmClear
6:56 PM43.0 °F43.0 °F100 %30.24 in4.0 miCalmClear
7:56 PM41.0 °F41.0 °F100 %30.24 in10.0 miCalmClear
8:56 PM39.9 °F39.9 °F100 %30.25 in10.0 miNE (40°)3.5 mphClear
10:56 PM37.9 °F37.9 °F100 %30.27 in10.0 miCalmClear
11:56 PM37.9 °F37.9 °F100 %30.26 in10.0 miNNE (20°)3.5 mphClear
Hourly data recorded from KBOK, located miles away from Wedderburn, Oregon







STORIES FROM OUR PARTNERS